KZ-1A R/B (44787 NORAD) Tracking and Keplerian Element Data

This shows tracking and keplerian element data for the satellite.

Feedback or suggestion? Click here.




ElementValue
Catalog44787
NameKZ-1A R/B
Epoch Orbit429
Epoch Day351.09130825
Epoch Year2019
RAAN124.1251
Inclination88.8829
Eccentricity0.0548053
Argument of Perigee84.8009
Mean Anonmoly281.5478
Mean Motion14.52435253
Decay Rate2.606E-05
L11 44787U 19077C 19351.09130825 .00002606 00000-0 73632-4 0 9990
L22 44787 88.8829 124.1251 0548053 84.8009 281.5478 14.52435253 4299

Live tracking and technical data element details for KZ-1A R/B (NORAD 44787). KZ-1A R/B can be tracked NOW for your location showing map with azimuth and elevation plus other details from your city location.

Track the satellite on the map from your city or location and see movement details for azimuth, elevation, latitude, longitude, range, height, and movement on the map or in text.







IsCatalogInMostPopularTable: catalog: 44787, numindb: 12
Update: records affected: 1



GetName: 44787 KZ-1A R/B

Hit Count: updated at: Mon, 20 Jan 2020 02:52:35 GMT